Weather History for Pampa / Mesa Vista, TX

Change the Weather History Date:

Friday, November 9, 2012

  Actual Average (KBGD) Record (KBGD)
Temperature  
Mean Temperature 68 °F 51 °F  
Max Temperature 82 °F 64 °F 83 °F (1999)
Min Temperature 53 °F 38 °F 22 °F (1950)
Degree Days  
Heating Degree Days 0 14  
Month to date heating degree days 111  
Since 1 July heating degree days 332  
Cooling Degree Days 2 0  
Month to date cooling degree days 0  
Year to date cooling degree days 1835  
Growing Degree Days 18 (Base 50)    
Moisture  
Dew Point 35 °F    
Average Humidity 32    
Maximum Humidity 67    
Minimum Humidity 14    
Precipitation  
Precipitation 0.00 in 0.03 in 0.18 in (1979)
Month to date precipitation 0.31  
Year to date precipitation 20.42  
Snow  
Snow 0.00 in - 0.70 in (1977)
Month to date snowfall  
Since 1 July snowfall  
Since 1 September snowfall  
Snow Depth -    
Sea Level Pressure  
Sea Level Pressure 29.78 in    
Wind  
Wind Speed 15 mph (SW)    
Max Wind Speed 29 mph    
Max Gust Speed 39 mph    
Visibility 10 miles    
Events      
T = Trace of Precipitation, MM = Missing Value Source: NWS Daily Summary

Daily Weather History Graph

Daily Weather History Graph

Search for Another Location

Airport:

Trip Planner

Search our weather history database for the weather conditions in past years. The results will help you decide how hot, cold, wet, or windy it might be!

Date:

Astronomy

Nov. 09, 2012 Rise Set
Actual Time 7:14 AM CST 5:40 PM CST
Civil Twilight 6:47 AM CST 6:07 PM CST
Nautical Twilight 6:17 AM CST 6:38 PM CST
Astronomical Twilight 5:47 AM CST 7:08 PM CST
Moon 2:24 AM CST (11/9) 2:47 PM CST (11/9)
Length of Visible Light 11h 19m
Length of Day
10h 25m
Waning Crescent, 23% of the Moon is Illuminated
Nov 9
Waning Crescent
Nov 13
New
Nov 20
First Quarter
Nov 28
Full
Dec 6
Last Quarter

Hourly Weather History & Observations

Time (CST) Temp. Dew Point Humidity Pressure Visibility Wind Dir Wind Speed Gust Speed Precip Events Conditions
12:15 AM 53.6 °F 26.6 °F 35% 29.84 in 10.0 mi SSW 11.5 mph - N/A   Clear
12:35 AM 55.4 °F 26.6 °F 33% 29.84 in 10.0 mi SW 8.1 mph - N/A   Clear
12:55 AM 53.6 °F 26.6 °F 35% 29.84 in 10.0 mi SW 8.1 mph - N/A   Clear
1:15 AM 53.6 °F 26.6 °F 35% 29.82 in 10.0 mi SSW 9.2 mph - N/A   Clear
1:35 AM 62.6 °F 32.0 °F 32% 29.82 in 10.0 mi SW 13.8 mph 19.6 mph N/A   Clear
1:55 AM 64.4 °F 33.8 °F 32% 29.82 in 10.0 mi SW 15.0 mph - N/A   Clear
2:15 AM 64.4 °F 35.6 °F 34% 29.82 in 10.0 mi SW 16.1 mph 21.9 mph N/A   Clear
2:55 AM 64.4 °F 39.2 °F 40% 29.81 in 10.0 mi SW 19.6 mph 25.3 mph N/A   Clear
3:15 AM 64.4 °F 41.0 °F 42% 29.81 in 10.0 mi SW 17.3 mph 21.9 mph N/A   Clear
3:35 AM 64.4 °F 42.8 °F 45% 29.81 in 10.0 mi SW 16.1 mph - N/A   Clear
3:55 AM 62.6 °F 42.8 °F 48% 29.81 in 10.0 mi SW 15.0 mph 19.6 mph N/A   Clear
4:15 AM 62.6 °F 44.6 °F 52% 29.80 in 10.0 mi SW 16.1 mph 23.0 mph N/A   Clear
4:55 AM 60.8 °F 44.6 °F 55% 29.81 in 10.0 mi SW 18.4 mph 23.0 mph N/A   Clear
5:15 AM 60.8 °F 44.6 °F 55% 29.81 in 10.0 mi SW 17.3 mph 20.7 mph N/A   Clear
5:35 AM 59.0 °F 44.6 °F 59% 29.81 in 10.0 mi SW 15.0 mph 18.4 mph N/A   Clear
5:55 AM 59.0 °F 44.6 °F 59% 29.81 in 10.0 mi SW 15.0 mph 19.6 mph N/A   Clear
6:15 AM 59.0 °F 44.6 °F 59% 29.81 in 10.0 mi SW 13.8 mph - N/A   Clear
6:55 AM 57.2 °F 44.6 °F 63% 29.80 in 10.0 mi SW 13.8 mph 18.4 mph N/A   Clear
7:15 AM 57.2 °F 44.6 °F 63% 29.80 in 10.0 mi SW 15.0 mph - N/A   Clear
7:35 AM 55.4 °F 44.6 °F 67% 29.80 in 10.0 mi SW 15.0 mph - N/A   Clear
7:55 AM 57.2 °F 42.8 °F 59% 29.81 in 10.0 mi SW 13.8 mph - N/A   Clear
8:15 AM 59.0 °F 42.8 °F 55% 29.81 in 10.0 mi SW 15.0 mph - N/A   Clear
8:35 AM 60.8 °F 42.8 °F 52% 29.82 in 10.0 mi SW 17.3 mph - N/A   Clear
8:55 AM 62.6 °F 39.2 °F 42% 29.82 in 10.0 mi SSW 13.8 mph - N/A   Clear
9:15 AM 64.4 °F 35.6 °F 34% 29.82 in 10.0 mi SW 13.8 mph - N/A   Clear
9:35 AM 66.2 °F 33.8 °F 30% 29.82 in 10.0 mi SW 13.8 mph 19.6 mph N/A   Clear
9:55 AM 68.0 °F 32.0 °F 26% 29.82 in 10.0 mi SW 16.1 mph - N/A   Clear
10:15 AM 71.6 °F 32.0 °F 23% 29.81 in 10.0 mi SW 13.8 mph - N/A   Clear
10:35 AM 73.4 °F 30.2 °F 20% 29.82 in 10.0 mi WSW 17.3 mph 21.9 mph N/A   Clear
10:55 AM 75.2 °F 28.4 °F 18% 29.81 in 10.0 mi WSW 15.0 mph 23.0 mph N/A   Clear
11:15 AM 77.0 °F 28.4 °F 17% 29.81 in 10.0 mi SW 15.0 mph - N/A   Clear
11:35 AM 78.8 °F 28.4 °F 16% 29.80 in 10.0 mi WSW 19.6 mph 25.3 mph N/A   Clear
11:55 AM 80.6 °F 28.4 °F 15% 29.80 in 10.0 mi SW 23.0 mph 29.9 mph N/A   Clear
12:15 PM 80.6 °F 30.2 °F 16% 29.78 in 10.0 mi SW 20.7 mph 28.8 mph N/A   Clear
12:35 PM 82.4 °F 28.4 °F 14% 29.77 in 10.0 mi WSW 24.2 mph 34.5 mph N/A   Clear
12:55 PM 82.4 °F 30.2 °F 15% 29.75 in 10.0 mi SW 23.0 mph 35.7 mph N/A   Clear
1:15 PM 82.4 °F 32.0 °F 16% 29.75 in 10.0 mi SW 28.8 mph 39.1 mph N/A   Clear
1:35 PM 82.4 °F 32.0 °F 16% 29.74 in 10.0 mi SW 28.8 mph 35.7 mph N/A   Clear
1:55 PM 82.4 °F 32.0 °F 16% 29.73 in 10.0 mi WSW 25.3 mph 36.8 mph N/A   Clear
2:15 PM 82.4 °F 30.2 °F 15% 29.73 in 10.0 mi SW 24.2 mph 33.4 mph N/A   Clear
2:35 PM 82.4 °F 30.2 °F 15% 29.72 in 10.0 mi SSW 25.3 mph 34.5 mph N/A   Clear
2:55 PM 82.4 °F 30.2 °F 15% 29.72 in 10.0 mi SW 23.0 mph 35.7 mph N/A   Clear
3:15 PM 82.4 °F 30.2 °F 15% 29.72 in 10.0 mi SW 25.3 mph 39.1 mph N/A   Clear
3:35 PM 80.6 °F 30.2 °F 16% 29.72 in 10.0 mi SSW 28.8 mph 35.7 mph N/A   Clear
3:55 PM 80.6 °F 30.2 °F 16% 29.72 in 10.0 mi SW 23.0 mph 31.1 mph N/A   Clear
4:15 PM 80.6 °F 30.2 °F 16% 29.72 in 10.0 mi SW 20.7 mph 28.8 mph N/A   Clear
4:35 PM 80.6 °F 28.4 °F 15% 29.73 in 10.0 mi SW 23.0 mph 32.2 mph N/A   Clear
5:15 PM 78.8 °F 30.2 °F 17% 29.72 in 10.0 mi SSW 18.4 mph 26.5 mph N/A   Clear
5:35 PM 77.0 °F 32.0 °F 19% 29.72 in 10.0 mi SSW 13.8 mph 27.6 mph N/A   Clear
5:55 PM 77.0 °F 33.8 °F 21% 29.73 in 10.0 mi SW 16.1 mph - N/A   Clear
6:15 PM 75.2 °F 33.8 °F 22% 29.73 in 10.0 mi SSW 13.8 mph - N/A   Clear
6:35 PM 73.4 °F 33.8 °F 23% 29.74 in 10.0 mi SSW 12.7 mph - N/A   Clear
6:55 PM 73.4 °F 35.6 °F 25% 29.75 in 10.0 mi SSW 15.0 mph - N/A   Clear
7:15 PM 71.6 °F 35.6 °F 27% 29.75 in 10.0 mi SSW 12.7 mph - N/A   Clear
7:35 PM 69.8 °F 33.8 °F 27% 29.76 in 10.0 mi SSW 11.5 mph - N/A   Clear
7:55 PM 69.8 °F 33.8 °F 27% 29.76 in 10.0 mi SSW 12.7 mph - N/A   Clear
8:15 PM 69.8 °F 33.8 °F 27% 29.76 in 10.0 mi SSW 10.4 mph - N/A   Clear
8:35 PM 68.0 °F 33.8 °F 28% 29.77 in 10.0 mi SSW 13.8 mph - N/A   Clear
8:55 PM 66.2 °F 33.8 °F 30% 29.77 in 10.0 mi SSW 13.8 mph - N/A   Clear
9:15 PM 66.2 °F 33.8 °F 30% 29.78 in 10.0 mi SSW 13.8 mph - N/A   Clear
9:35 PM 66.2 °F 35.6 °F 32% 29.77 in 10.0 mi SSW 13.8 mph - N/A   Clear
9:55 PM 66.2 °F 35.6 °F 32% 29.78 in 10.0 mi SSW 12.7 mph - N/A   Clear
10:15 PM 64.4 °F 35.6 °F 34% 29.78 in 10.0 mi SSW 13.8 mph - N/A   Clear
10:35 PM 64.4 °F 35.6 °F 34% 29.78 in 10.0 mi SSW 12.7 mph - N/A   Clear
10:55 PM 64.4 °F 35.6 °F 34% 29.79 in 10.0 mi SW 10.4 mph - N/A   Clear
11:15 PM 64.4 °F 37.4 °F 37% 29.79 in 10.0 mi SW 12.7 mph - N/A   Clear
11:35 PM 64.4 °F 37.4 °F 37% 29.78 in 10.0 mi SSW 12.7 mph - N/A   Clear
11:55 PM 64.4 °F 37.4 °F 37% 29.78 in 10.0 mi SSW 12.7 mph - N/A   Clear